Location: Grand Mazuras
(45.9128°N, 1.7636°E)
Time: 04:52:08
(UTC+00:00)

ATLAS 2AS CENTAUR R/B - Pass Details

Date: 18 April 2021
Orbit: 949 x 1263 km, 63.7° (Epoch: 07 May)

Event Time Altitude Azimuth Distance (km) Brightness Sun altitude
Rises 19:57:03 0° 223° (SW) 4,191 6.0 -12.4°
Reaches altitude 10° 19:59:51 10° 225° (SW) 3,237 5.4 -12.8°
Maximum altitude 20:07:45 75° 310° (NW) 1,298 3.3 -14.0°
Drops below altitude 10° 20:15:33 10° 37° (NE) 3,188 5.2 -15.1°
Sets 20:18:17 0° 39° (NE) 4,124 5.7 -15.5°
